PAKSAT-MM1

Last updated on Tue Sep 16 2025 00:02:51 GMT+0000 (Coordinated Universal Time)

1 59915U 24104A 25258.02114133 .00000139 00000+0 00000+0 0 9998 2 59915 0.0097 188.0168 0001877 343.5182 228.4756 1.00272070 4768
UTC large
Height (km)
Speed (km/s)
/
Latitude / Longitude
Inclination (degrees)
Orbital Period (minutes)
Azimuth
Elevation
Range (km)
Doppler Factor

Next 0 passes for location: London (51.5072 / 0.1276)

Sorry there are no passes over London.